| time (UTC) | temp F | wind direction | speed MPH | gust MPH | rain 1hr in | rain 24hr in | rain mn in | humidity % | barometer mb |
| 20260508202018 | 73 | 191 | 0.0 | 10.0 | 0.00 | 0.00 | 0.00 | 27 | 1015.9 |
| 20260508201029 | 74 | 211 | 2.0 | 8.0 | 0.00 | 0.00 | 0.00 | 22 | 1015.9 |
| 20260508200013 | 73 | 359 | 1.0 | 8.0 | 0.00 | 0.00 | 0.00 | 23 | 1015.9 |
| 20260508195024 | 73 | 152 | 0.0 | 6.0 | 0.00 | 0.00 | 0.00 | 26 | 1016.0 |
| 20260508194035 | 73 | 359 | 0.0 | 7.0 | 0.00 | 0.00 | 0.00 | 29 | 1016.0 |
| 20260508193020 | 73 | 230 | 0.0 | 5.0 | 0.00 | 0.00 | 0.00 | 30 | 1016.2 |
| 20260508192031 | 72 | 251 | 1.0 | 5.0 | 0.00 | 0.00 | 0.00 | 32 | 1016.2 |
| 20260508191015 | 71 | 271 | 1.0 | 8.0 | 0.00 | 0.00 | 0.00 | 31 | 1016.3 |
| 20260508190027 | 72 | 359 | 1.0 | 7.0 | 0.00 | 0.00 | 0.00 | 32 | 1016.3 |
| 20260508185039 | 71 | 256 | 2.0 | 7.0 | 0.00 | 0.00 | 0.00 | 32 | 1016.3 |
| 20260508184022 | 72 | 210 | 1.0 | 6.0 | 0.00 | 0.00 | 0.00 | 30 | 1016.4 |
| 20260508183014 | 71 | 255 | 2.0 | 6.0 | 0.00 | 0.00 | 0.00 | 31 | 1016.5 |
| 20260508182019 | 71 | 285 | 0.0 | 5.0 | 0.00 | 0.00 | 0.00 | 27 | 1016.6 |
| 20260508181014 | 70 | 359 | 0.0 | 6.0 | 0.00 | 0.00 | 0.00 | 29 | 1016.7 |
| 20260508180023 | 69 | 243 | 1.0 | 7.0 | 0.00 | 0.00 | 0.00 | 31 | 1016.7 |
| 20260508175050 | 69 | 220 | 1.0 | 5.0 | 0.00 | 0.00 | 0.00 | 32 | 1016.8 |
| 20260508174017 | 69 | 225 | 2.0 | 8.0 | 0.00 | 0.00 | 0.00 | 33 | 1016.9 |
| 20260508173027 | 68 | 266 | 2.0 | 5.0 | 0.00 | 0.00 | 0.00 | 37 | 1016.9 |
| 20260508172038 | 69 | 256 | 1.0 | 5.0 | 0.00 | 0.00 | 0.00 | 39 | 1016.8 |
| 20260508171022 | 68 | 253 | 0.0 | 6.0 | 0.00 | 0.00 | 0.00 | 41 | 1017.0 |
| 20260508170013 | 68 | 359 | 1.0 | 6.0 | 0.00 | 0.00 | 0.00 | 42 | 1017.0 |
| 20260508165024 | 68 | 248 | 0.0 | 6.0 | 0.00 | 0.00 | 0.00 | 41 | 1016.9 |
| 20260508164028 | 68 | 285 | 0.0 | 1.0 | 0.00 | 0.00 | 0.00 | 42 | 1016.8 |
| 20260508163020 | 67 | 260 | 0.0 | 3.0 | 0.00 | 0.00 | 0.00 | 41 | 1016.8 |
| 20260508162032 | 67 | 251 | 0.0 | 0.0 | 0.00 | 0.00 | 0.00 | 42 | 1016.8 |
| 20260508161014 | 67 | 252 | 0.0 | 0.0 | 0.00 | 0.00 | 0.00 | 43 | 1016.7 |
| 20260508160016 | 67 | 225 | 0.0 | 2.0 | 0.00 | 0.00 | 0.00 | 42 | 1016.7 |
| 20260508155019 | 67 | 251 | 0.0 | 2.0 | 0.00 | 0.00 | 0.00 | 43 | 1016.8 |
| 20260508154031 | 66 | 214 | 0.0 | 0.0 | 0.00 | 0.00 | 0.00 | 41 | 1016.6 |
| 20260508153022 | 65 | 214 | 0.0 | 0.0 | 0.00 | 0.00 | 0.00 | 44 | 1016.5 |
| 20260508152033 | 65 | 166 | 0.0 | 0.0 | 0.00 | 0.00 | 0.00 | 44 | 1016.6 |
| 20260508151016 | 64 | 167 | 0.0 | 0.0 | 0.00 | 0.00 | 0.00 | 46 | 1016.6 |
| 20260508150027 | 64 | 168 | 0.0 | 0.0 | 0.00 | 0.00 | 0.00 | 47 | 1016.5 |
| 20260508145017 | 63 | 166 | 0.0 | 0.0 | 0.00 | 0.00 | 0.00 | 46 | 1016.5 |
| 20260508144021 | 62 | 166 | 0.0 | 0.0 | 0.00 | 0.00 | 0.00 | 46 | 1016.4 |
| 20260508143033 | 60 | 166 | 0.0 | 0.0 | 0.00 | 0.00 | 0.00 | 47 | 1016.3 |
| 20260508142023 | 58 | 168 | 0.0 | 0.0 | 0.00 | 0.00 | 0.00 | 49 | 1016.2 |
| 20260508141032 | 56 | 170 | 0.0 | 0.0 | 0.00 | 0.00 | 0.00 | 51 | 1016.2 |
| 20260508140016 | 55 | 169 | 0.0 | 0.0 | 0.00 | 0.00 | 0.00 | 52 | 1016.1 |
| 20260508135028 | 55 | 170 | 0.0 | 0.0 | 0.00 | 0.00 | 0.00 | 52 | 1015.9 |
| 20260508134012 | 54 | 168 | 0.0 | 0.0 | 0.00 | 0.00 | 0.00 | 51 | 1015.9 |
| 20260508133044 | 54 | 110 | 0.0 | 0.0 | 0.00 | 0.00 | 0.00 | 50 | 1015.8 |
| 20260508132056 | 53 | 110 | 0.0 | 0.0 | 0.00 | 0.00 | 0.00 | 50 | 1015.7 |
| 20260508131019 | 53 | 110 | 0.0 | 0.0 | 0.00 | 0.00 | 0.00 | 51 | 1015.5 |
| 20260508130030 | 52 | 110 | 0.0 | 0.0 | 0.00 | 0.00 | 0.00 | 51 | 1015.3 |
| 20260508125013 | 52 | 110 | 0.0 | 0.0 | 0.00 | 0.00 | 0.00 | 50 | 1015.2 |
| 20260508124025 | 53 | 108 | 0.0 | 2.0 | 0.00 | 0.00 | 0.00 | 50 | 1015.1 |
| 20260508123015 | 53 | 122 | 0.0 | 0.0 | 0.00 | 0.00 | 0.00 | 50 | 1015.1 |
| 20260508122019 | 53 | 121 | 0.0 | 0.0 | 0.00 | 0.00 | 0.00 | 49 | 1015.0 |
| 20260508121032 | 53 | 122 | 0.0 | 0.0 | 0.00 | 0.00 | 0.00 | 49 | 1014.9 |
| 20260508120022 | 54 | 125 | 0.0 | 0.0 | 0.00 | 0.00 | 0.00 | 48 | 1014.8 |
| 20260508115033 | 54 | 120 | 0.0 | 1.0 | 0.00 | 0.00 | 0.00 | 48 | 1014.7 |
| 20260508114037 | 54 | 114 | 0.0 | 3.0 | 0.00 | 0.00 | 0.00 | 48 | 1014.6 |
| 20260508113028 | 54 | 140 | 0.0 | 0.0 | 0.00 | 0.00 | 0.00 | 48 | 1014.6 |
| 20260508112019 | 55 | 120 | 0.0 | 1.0 | 0.00 | 0.00 | 0.00 | 48 | 1014.6 |
| 20260508111023 | 55 | 114 | 0.0 | 0.0 | 0.00 | 0.00 | 0.00 | 48 | 1014.5 |
| 20260508110014 | 54 | 113 | 0.0 | 0.0 | 0.00 | 0.00 | 0.00 | 48 | 1014.5 |
| 20260508105025 | 54 | 113 | 0.0 | 1.0 | 0.00 | 0.00 | 0.00 | 49 | 1014.4 |
| 20260508104030 | 54 | 110 | 0.0 | 1.0 | 0.00 | 0.00 | 0.00 | 50 | 1014.3 |
| 20260508103021 | 54 | 131 | 0.0 | 0.0 | 0.00 | 0.00 | 0.00 | 50 | 1014.3 |
| 20260508102025 | 54 | 131 | 0.0 | 0.0 | 0.00 | 0.00 | 0.00 | 50 | 1014.3 |
| 20260508101017 | 53 | 134 | 0.0 | 0.0 | 0.00 | 0.00 | 0.00 | 51 | 1014.3 |
| 20260508100028 | 53 | 153 | 0.0 | 0.0 | 0.00 | 0.00 | 0.00 | 51 | 1014.2 |
| 20260508095028 | 53 | 157 | 0.0 | 0.0 | 0.00 | 0.00 | 0.00 | 52 | 1014.3 |
| 20260508094040 | 53 | 158 | 0.0 | 0.0 | 0.00 | 0.00 | 0.00 | 52 | 1014.2 |
| 20260508093031 | 53 | 160 | 0.0 | 0.0 | 0.00 | 0.00 | 0.00 | 52 | 1014.2 |
| 20260508092015 | 53 | 160 | 0.0 | 0.0 | 0.00 | 0.00 | 0.00 | 52 | 1014.2 |
| 20260508091026 | 53 | 158 | 0.0 | 0.0 | 0.00 | 0.00 | 0.00 | 52 | 1014.2 |
| 20260508090017 | 54 | 159 | 0.0 | 0.0 | 0.00 | 0.00 | 0.00 | 51 | 1014.2 |
| 20260508085028 | 54 | 159 | 0.0 | 0.0 | 0.00 | 0.00 | 0.00 | 50 | 1014.2 |
| 20260508084012 | 54 | 159 | 0.0 | 0.0 | 0.00 | 0.00 | 0.00 | 50 | 1014.3 |
| 20260508083024 | 55 | 158 | 0.0 | 0.0 | 0.00 | 0.00 | 0.00 | 50 | 1014.2 |
| 20260508082035 | 55 | 158 | 0.0 | 0.0 | 0.00 | 0.00 | 0.00 | 50 | 1014.2 |
| 20260508081023 | 56 | 160 | 0.0 | 0.0 | 0.00 | 0.00 | 0.00 | 49 | 1014.2 |
| 20260508080031 | 55 | 158 | 0.0 | 0.0 | 0.00 | 0.00 | 0.00 | 50 | 1014.2 |
| 20260508075038 | 55 | 160 | 0.0 | 0.0 | 0.00 | 0.00 | 0.00 | 50 | 1014.2 |
| 20260508074021 | 55 | 160 | 0.0 | 0.0 | 0.00 | 0.00 | 0.00 | 50 | 1014.1 |
| 20260508073032 | 56 | 159 | 0.0 | 0.0 | 0.00 | 0.00 | 0.00 | 49 | 1014.1 |
| 20260508072040 | 56 | 160 | 0.0 | 0.0 | 0.00 | 0.00 | 0.00 | 48 | 1014.1 |
| 20260508071029 | 56 | 162 | 0.0 | 0.0 | 0.00 | 0.00 | 0.00 | 49 | 1014.2 |
| 20260508070033 | 56 | 159 | 0.0 | 0.0 | 0.00 | 0.00 | 0.00 | 49 | 1014.1 |
| 20260508065024 | 56 | 160 | 0.0 | 0.0 | 0.00 | 0.00 | 0.00 | 49 | 1014.0 |
| 20260508064036 | 56 | 160 | 0.0 | 0.0 | 0.00 | 0.00 | 0.00 | 49 | 1014.0 |
| 20260508063021 | 57 | 228 | 0.0 | 0.0 | 0.00 | 0.00 | 0.00 | 49 | 1014.0 |
| 20260508062030 | 57 | 230 | 0.0 | 0.0 | 0.00 | 0.00 | 0.00 | 48 | 1013.9 |
| 20260508061033 | 57 | 230 | 0.0 | 0.0 | 0.00 | 0.00 | 0.00 | 48 | 1013.9 |
| 20260508060025 | 57 | 229 | 0.0 | 0.0 | 0.00 | 0.00 | 0.00 | 48 | 1013.8 |
| 20260508055036 | 58 | 230 | 0.0 | 0.0 | 0.00 | 0.00 | 0.00 | 47 | 1013.8 |
| 20260508054021 | 59 | 230 | 0.0 | 0.0 | 0.00 | 0.00 | 0.00 | 46 | 1013.8 |
| 20260508053053 | 60 | 230 | 0.0 | 0.0 | 0.00 | 0.00 | 0.00 | 44 | 1013.7 |
| 20260508052023 | 61 | 359 | 0.0 | 0.0 | 0.00 | 0.00 | 0.00 | 43 | 1013.7 |
| 20260508051034 | 61 | 231 | 0.0 | 0.0 | 0.00 | 0.00 | 0.00 | 41 | 1013.7 |
| 20260508050017 | 62 | 229 | 0.0 | 0.0 | 0.00 | 0.00 | 0.00 | 42 | 1013.6 |
| 20260508045027 | 62 | 229 | 0.0 | 0.0 | 0.00 | 0.00 | 0.00 | 42 | 1013.5 |
| 20260508044037 | 61 | 359 | 0.0 | 0.0 | 0.00 | 0.00 | 0.00 | 42 | 1013.5 |
| 20260508043048 | 61 | 231 | 0.0 | 0.0 | 0.00 | 0.00 | 0.00 | 43 | 1013.4 |
| 20260508042029 | 61 | 258 | 0.0 | 0.0 | 0.00 | 0.00 | 0.00 | 44 | 1013.3 |
| 20260508041021 | 62 | 257 | 0.0 | 0.0 | 0.00 | 0.00 | 0.00 | 44 | 1013.3 |
| 20260508040033 | 62 | 258 | 0.0 | 0.0 | 0.00 | 0.00 | 0.00 | 43 | 1013.3 |
| 20260508035013 | 63 | 258 | 0.0 | 0.0 | 0.00 | 0.00 | 0.00 | 43 | 1013.3 |
| 20260508034045 | 63 | 258 | 0.0 | 0.0 | 0.00 | 0.00 | 0.00 | 42 | 1013.1 |
| 20260508033015 | 64 | 257 | 0.0 | 0.0 | 0.00 | 0.00 | 0.00 | 40 | 1013.0 |
| 20260508032020 | 65 | 256 | 0.0 | 0.0 | 0.00 | 0.00 | 0.00 | 40 | 1012.9 |
| 20260508031031 | 66 | 256 | 0.0 | 0.0 | 0.00 | 0.00 | 0.00 | 36 | 1012.8 |
| 20260508030023 | 67 | 257 | 0.0 | 0.0 | 0.00 | 0.00 | 0.00 | 34 | 1012.7 |
| 20260508025027 | 68 | 258 | 0.0 | 0.0 | 0.00 | 0.00 | 0.00 | 34 | 1012.7 |
| 20260508024018 | 70 | 359 | 0.0 | 0.0 | 0.00 | 0.00 | 0.00 | 31 | 1012.7 |
| 20260508023050 | 71 | 256 | 0.0 | 0.0 | 0.00 | 0.00 | 0.00 | 30 | 1012.6 |
| 20260508022014 | 72 | 258 | 0.0 | 0.0 | 0.00 | 0.00 | 0.00 | 28 | 1012.6 |
| 20260508021025 | 73 | 257 | 0.0 | 0.0 | 0.00 | 0.00 | 0.00 | 27 | 1012.5 |
| 20260508020037 | 73 | 257 | 0.0 | 0.0 | 0.00 | 0.00 | 0.00 | 27 | 1012.6 |
| 20260508015021 | 73 | 257 | 0.0 | 0.0 | 0.00 | 0.00 | 0.00 | 27 | 1012.6 |
| 20260508014053 | 74 | 257 | 0.0 | 0.0 | 0.00 | 0.00 | 0.00 | 26 | 1012.7 |
| 20260508013044 | 74 | 359 | 0.0 | 0.0 | 0.00 | 0.00 | 0.00 | 26 | 1012.6 |
| 20260508012034 | 74 | 258 | 0.0 | 1.0 | 0.00 | 0.00 | 0.00 | 26 | 1012.6 |
| 20260508011018 | 75 | 256 | 2.0 | 5.0 | 0.00 | 0.00 | 0.00 | 25 | 1012.7 |
| 20260508010044 | 75 | 262 | 1.0 | 6.0 | 0.00 | 0.00 | 0.00 | 26 | 1012.8 |
| 20260508005014 | 75 | 270 | 1.0 | 8.0 | 0.00 | 0.00 | 0.00 | 24 | 1012.8 |
| 20260508004026 | 75 | 359 | 0.0 | 7.0 | 0.00 | 0.00 | 0.00 | 24 | 1012.9 |
| 20260508003056 | 75 | 267 | 0.0 | 4.0 | 0.00 | 0.00 | 0.00 | 25 | 1012.9 |
| 20260508002040 | 75 | 266 | 1.0 | 9.0 | 0.00 | 0.00 | 0.00 | 26 | 1012.8 |
| 20260508001024 | 74 | 251 | 0.0 | 5.0 | 0.00 | 0.00 | 0.00 | 25 | 1012.8 |
| 20260508000035 | 74 | 218 | 0.0 | 0.0 | 0.00 | 0.00 | 0.00 | 26 | 1012.9 |
| 20260507235020 | 74 | 359 | 0.0 | 2.0 | 0.00 | 0.00 | 0.00 | 27 | 1013.1 |
| 20260507234052 | 74 | 250 | 0.0 | 7.0 | 0.00 | 0.00 | 0.00 | 26 | 1013.3 |
| 20260507233022 | 74 | 260 | 1.0 | 5.0 | 0.00 | 0.00 | 0.00 | 26 | 1013.4 |
| 20260507232025 | 74 | 195 | 1.0 | 7.0 | 0.00 | 0.00 | 0.00 | 26 | 1013.5 |
| 20260507231037 | 75 | 253 | 1.0 | 6.0 | 0.00 | 0.00 | 0.00 | 26 | 1013.7 |
| 20260507230018 | 75 | 276 | 0.0 | 3.0 | 0.00 | 0.00 | 0.00 | 26 | 1013.7 |
| 20260507225030 | 74 | 195 | 1.0 | 5.0 | 0.00 | 0.00 | 0.00 | 26 | 1013.9 |
| 20260507224014 | 72 | 153 | 0.0 | 0.0 | 0.00 | 0.00 | 0.00 | 27 | 1014.1 |
| 20260507223026 | 72 | 220 | 0.0 | 0.0 | 0.00 | 0.00 | 0.00 | 28 | 1014.2 |
| 20260507222039 | 71 | 227 | 0.0 | 0.0 | 0.00 | 0.00 | 0.00 | 29 | 1014.4 |
| 20260507221048 | 71 | 359 | 0.0 | 3.0 | 0.00 | 0.00 | 0.00 | 28 | 1014.6 |
| 20260507220031 | 71 | 359 | 1.0 | 6.0 | 0.00 | 0.00 | 0.00 | 29 | 1014.7 |
| 20260507215022 | 71 | 253 | 1.0 | 8.0 | 0.00 | 0.00 | 0.00 | 29 | 1014.7 |
| 20260507214033 | 71 | 262 | 3.0 | 7.0 | 0.00 | 0.00 | 0.00 | 28 | 1014.9 |
| 20260507213038 | 71 | 242 | 1.0 | 4.0 | 0.00 | 0.00 | 0.00 | 28 | 1015.0 |
| 20260507212029 | 71 | 240 | 2.0 | 7.0 | 0.00 | 0.00 | 0.00 | 27 | 1015.1 |
| 20260507211021 | 71 | 264 | 1.0 | 7.0 | 0.00 | 0.00 | 0.00 | 26 | 1015.3 |
| 20260507210023 | 72 | 359 | 3.0 | 10.0 | 0.00 | 0.00 | 0.00 | 24 | 1015.4 |
| 20260507205014 | 72 | 270 | 0.0 | 9.0 | 0.00 | 0.00 | 0.00 | 26 | 1015.5 |
| 20260507204019 | 71 | 227 | 3.0 | 10.0 | 0.00 | 0.00 | 0.00 | 26 | 1015.7 |